Time,TemperatureF,DewpointF,PressureIn,WindDirection,WindDirectionDegrees,WindSpeedMPH,WindSpeedGustMPH,Humidity,HourlyPrecipIn,Conditions,Clouds,dailyrainin,SoftwareType,DateUTC
2013-03-31 00:02:00,45.0,45.0,29.92,South,180,5.0,-999.0,100,-99.99,,,-99.99,,2013-03-31 05:02:00,
2013-03-31 00:12:00,45.0,45.0,29.92,South,180,5.0,-999.0,100,-99.99,,,-99.99,,2013-03-31 05:12:00,
2013-03-31 00:22:00,45.0,45.0,29.92,SSW,200,5.0,-999.0,100,-99.99,,,-99.99,,2013-03-31 05:22:00,
2013-03-31 00:32:00,45.0,45.0,29.92,SSW,210,5.0,-999.0,100,-99.99,,,-99.99,,2013-03-31 05:32:00,
2013-03-31 00:42:00,45.0,45.0,29.92,SSW,210,3.0,-999.0,100,-99.99,,,-99.99,,2013-03-31 05:42:00,
2013-03-31 00:53:00,45.0,45.0,29.92,SSW,200,3.0,-999.0,100,-99.99,,,-99.99,,2013-03-31 05:53:00,
2013-03-31 01:02:00,45.0,45.0,29.92,SSW,200,3.0,-999.0,100,-99.99,,,-99.99,,2013-03-31 06:02:00,
2013-03-31 01:12:00,45.0,45.0,29.92,SSW,200,3.0,-999.0,100,-99.99,,,-99.99,,2013-03-31 06:12:00,
2013-03-31 01:22:00,45.0,45.0,29.92,WSW,240,3.0,-999.0,100,-99.99,,,-99.99,,2013-03-31 06:22:00,
2013-03-31 01:32:00,45.0,45.0,29.91,SW,230,3.0,-999.0,100,-99.99,,,-99.99,,2013-03-31 06:32:00,
2013-03-31 01:42:00,45.0,45.0,29.91,SW,220,5.0,-999.0,100,-99.99,,,-99.99,,2013-03-31 06:42:00,
2013-03-31 01:52:00,45.0,45.0,29.92,SW,230,3.0,-999.0,100,-99.99,,,-99.99,,2013-03-31 06:52:00,
2013-03-31 02:02:00,45.0,45.0,29.92,SW,230,3.0,-999.0,100,-99.99,,,-99.99,,2013-03-31 07:02:00,
2013-03-31 02:12:00,45.0,45.0,29.92,SW,230,3.0,-999.0,100,-99.99,,,-99.99,,2013-03-31 07:12:00,
2013-03-31 02:22:00,45.0,45.0,29.92,West,280,6.0,-999.0,100,-99.99,,,-99.99,,2013-03-31 07:22:00,
2013-03-31 02:32:00,45.0,45.0,29.92,West,270,6.0,-999.0,100,-99.99,,,-99.99,,2013-03-31 07:32:00,
2013-03-31 02:43:00,45.0,45.0,29.92,West,260,5.0,-999.0,100,-99.99,,,-99.99,,2013-03-31 07:43:00,
2013-03-31 02:53:00,45.0,45.0,29.92,WSW,240,3.0,-999.0,100,-99.99,,,-99.99,,2013-03-31 07:53:00,
2013-03-31 03:02:00,45.0,45.0,29.92,WSW,240,3.0,-999.0,100,-99.99,,,-99.99,,2013-03-31 08:02:00,
2013-03-31 03:12:00,45.0,45.0,29.92,WSW,240,3.0,-999.0,100,-99.99,,,-99.99,,2013-03-31 08:12:00,
2013-03-31 03:22:00,45.0,45.0,29.91,West,280,5.0,-999.0,100,-99.99,,,-99.99,,2013-03-31 08:22:00,
2013-03-31 03:32:00,45.0,45.0,29.91,West,280,5.0,-999.0,100,-99.99,,,-99.99,,2013-03-31 08:32:00,
2013-03-31 03:42:00,45.0,-99.9,29.92,WNW,290,8.0,-999.0,-999,-99.99,,,-99.99,,2013-03-31 08:42:00,
2013-03-31 03:52:00,45.0,45.0,29.91,WNW,300,6.0,-999.0,100,-99.99,,,-99.99,,2013-03-31 08:52:00,
2013-03-31 04:02:00,45.0,45.0,29.91,WNW,300,6.0,-999.0,100,-99.99,,,-99.99,,2013-03-31 09:02:00,
2013-03-31 04:12:00,45.0,45.0,29.91,WNW,300,6.0,-999.0,100,-99.99,,,-99.99,,2013-03-31 09:12:00,
2013-03-31 04:22:00,46.0,46.0,29.92,WNW,300,8.0,-999.0,100,-99.99,,,-99.99,,2013-03-31 09:22:00,
2013-03-31 04:33:00,46.0,46.0,29.91,NW,310,10.0,-999.0,100,-99.99,,,-99.99,,2013-03-31 09:33:00,
2013-03-31 04:43:00,46.0,-99.9,29.91,WNW,300,8.0,-999.0,-999,-99.99,,,-99.99,,2013-03-31 09:43:00,
2013-03-31 04:53:00,46.0,-99.9,29.91,WNW,300,8.0,-999.0,-999,-99.99,,,-99.99,,2013-03-31 09:53:00,
2013-03-31 05:03:00,46.0,-99.9,29.91,WNW,300,8.0,-999.0,-999,-99.99,,,-99.99,,2013-03-31 10:03:00,
2013-03-31 05:13:00,46.0,-99.9,29.91,WNW,300,8.0,-999.0,-999,-99.99,,,-99.99,,2013-03-31 10:13:00,
2013-03-31 05:24:00,46.0,-99.9,29.90,WNW,290,7.0,-999.0,-999,-99.99,,,-99.99,,2013-03-31 10:24:00,
2013-03-31 05:33:00,46.0,-99.9,29.90,West,280,7.0,-999.0,-999,-99.99,,,-99.99,,2013-03-31 10:33:00,
2013-03-31 05:42:00,46.0,-99.9,29.90,West,280,6.0,-999.0,-999,-99.99,,,-99.99,,2013-03-31 10:42:00,
2013-03-31 05:53:00,46.0,-99.9,29.90,West,260,6.0,-999.0,-999,-99.99,,,-99.99,,2013-03-31 10:53:00,
2013-03-31 06:03:00,46.0,-99.9,29.90,West,260,6.0,-999.0,-999,-99.99,,,-99.99,,2013-03-31 11:03:00,
2013-03-31 06:12:00,46.0,-99.9,29.90,West,260,6.0,-999.0,-999,-99.99,,,-99.99,,2013-03-31 11:12:00,
2013-03-31 06:23:00,45.0,-99.9,29.92,West,270,7.0,-999.0,-999,-99.99,,,-99.99,,2013-03-31 11:23:00,
2013-03-31 06:33:00,45.0,-99.9,29.92,West,270,7.0,-999.0,-999,-99.99,,,-99.99,,2013-03-31 11:33:00,
2013-03-31 06:43:00,45.0,-99.9,29.92,West,280,6.0,-999.0,-999,-99.99,,,-99.99,,2013-03-31 11:43:00,
2013-03-31 06:53:00,45.0,-99.9,29.92,West,280,5.0,-999.0,-999,-99.99,,,-99.99,,2013-03-31 11:53:00,
2013-03-31 07:03:00,45.0,-99.9,29.92,West,280,5.0,-999.0,-999,-99.99,,,-99.99,,2013-03-31 12:03:00,
2013-03-31 07:12:00,45.0,-99.9,29.92,West,280,5.0,-999.0,-999,-99.99,,,-99.99,,2013-03-31 12:12:00,
2013-03-31 07:22:00,45.0,-99.9,29.92,West,280,5.0,-999.0,-999,-99.99,,,-99.99,,2013-03-31 12:22:00,
2013-03-31 07:33:00,45.0,-99.9,29.92,West,270,7.0,-999.0,-999,-99.99,,,-99.99,,2013-03-31 12:33:00,
2013-03-31 07:42:00,45.0,-99.9,29.93,West,260,7.0,-999.0,-999,-99.99,,,-99.99,,2013-03-31 12:42:00,
2013-03-31 07:53:00,45.0,-99.9,29.93,West,260,8.0,-999.0,-999,-99.99,,,-99.99,,2013-03-31 12:53:00,
2013-03-31 08:02:00,45.0,-99.9,29.93,West,260,8.0,-999.0,-999,-99.99,,,-99.99,,2013-03-31 13:02:00,
2013-03-31 08:12:00,45.0,-99.9,29.93,West,260,8.0,-999.0,-999,-99.99,,,-99.99,,2013-03-31 13:12:00,
2013-03-31 08:23:00,45.0,-99.9,29.94,West,270,9.0,-999.0,-999,-99.99,,,-99.99,,2013-03-31 13:23:00,
2013-03-31 08:33:00,45.0,-99.9,29.94,West,270,10.0,-999.0,-999,-99.99,,,-99.99,,2013-03-31 13:33:00,
2013-03-31 08:42:00,46.0,-99.9,29.93,West,270,9.0,-999.0,-999,-99.99,,,-99.99,,2013-03-31 13:42:00,
2013-03-31 08:53:00,46.0,-99.9,29.93,West,270,9.0,-999.0,-999,-99.99,,,-99.99,,2013-03-31 13:53:00,
2013-03-31 09:03:00,46.0,-99.9,29.93,West,270,9.0,-999.0,-999,-99.99,,,-99.99,,2013-03-31 14:03:00,
2013-03-31 09:12:00,46.0,-99.9,29.93,West,270,9.0,-999.0,-999,-99.99,,,-99.99,,2013-03-31 14:12:00,
2013-03-31 09:23:00,46.0,-99.9,29.93,NW,310,12.0,-999.0,-999,-99.99,,,-99.99,,2013-03-31 14:23:00,
2013-03-31 09:33:00,46.0,-99.9,29.93,NW,310,12.0,-999.0,-999,-99.99,,,-99.99,,2013-03-31 14:33:00,
2013-03-31 09:43:00,46.0,-99.9,29.93,WNW,290,10.0,17.0,-999,-99.99,,,-99.99,,2013-03-31 14:43:00,
2013-03-31 09:53:00,48.0,-99.9,29.93,WNW,300,10.0,-999.0,-999,-99.99,,,-99.99,,2013-03-31 14:53:00,
2013-03-31 10:03:00,48.0,-99.9,29.93,WNW,300,10.0,-999.0,-999,-99.99,,,-99.99,,2013-03-31 15:03:00,
2013-03-31 10:13:00,48.0,-99.9,29.93,WNW,300,10.0,-999.0,-999,-99.99,,,-99.99,,2013-03-31 15:13:00,
2013-03-31 10:22:00,50.0,50.0,29.91,NNW,330,6.0,-999.0,100,-99.99,,,-99.99,,2013-03-31 15:22:00,
2013-03-31 10:33:00,50.0,50.0,29.91,NNW,330,6.0,-999.0,100,-99.99,,,-99.99,,2013-03-31 15:33:00,
2013-03-31 10:43:00,52.0,48.0,29.91,NW,310,9.0,-999.0,87,-99.99,,,-99.99,,2013-03-31 15:43:00,
2013-03-31 10:54:00,52.0,48.0,29.90,NW,320,7.0,-999.0,87,-99.99,,,-99.99,,2013-03-31 15:54:00,
2013-03-31 11:03:00,52.0,48.0,29.90,NW,320,7.0,-999.0,87,-99.99,,,-99.99,,2013-03-31 16:03:00,
2013-03-31 11:13:00,52.0,48.0,29.90,NW,320,7.0,-999.0,87,-99.99,,,-99.99,,2013-03-31 16:13:00,
2013-03-31 11:23:00,54.0,48.0,29.91,NW,320,8.0,-999.0,81,-99.99,,,-99.99,,2013-03-31 16:23:00,
2013-03-31 11:33:00,55.0,48.0,29.90,NW,320,9.0,-999.0,76,-99.99,,,-99.99,,2013-03-31 16:33:00,
2013-03-31 11:43:00,55.0,48.0,29.90,NW,320,9.0,-999.0,76,-99.99,,,-99.99,,2013-03-31 16:43:00,
2013-03-31 11:53:00,55.0,48.0,29.91,WNW,290,8.0,-999.0,76,-99.99,,,-99.99,,2013-03-31 16:53:00,
2013-03-31 12:03:00,55.0,48.0,29.91,WNW,290,8.0,-999.0,76,-99.99,,,-99.99,,2013-03-31 17:03:00,
2013-03-31 12:12:00,55.0,48.0,29.91,WNW,290,8.0,-999.0,76,-99.99,,,-99.99,,2013-03-31 17:12:00,
2013-03-31 12:22:00,57.0,46.0,29.90,NNW,330,7.0,-999.0,67,-99.99,,,-99.99,,2013-03-31 17:22:00,
2013-03-31 12:32:00,57.0,46.0,29.90,WNW,300,10.0,-999.0,67,-99.99,,,-99.99,,2013-03-31 17:32:00,
2013-03-31 12:43:00,57.0,45.0,29.90,NW,320,8.0,-999.0,62,-99.99,,,-99.99,,2013-03-31 17:43:00,
2013-03-31 12:52:00,59.0,45.0,29.90,WNW,290,8.0,-999.0,58,-99.99,,,-99.99,,2013-03-31 17:52:00,
2013-03-31 13:02:00,59.0,45.0,29.90,WNW,290,8.0,-999.0,58,-99.99,,,-99.99,,2013-03-31 18:02:00,
2013-03-31 13:12:00,59.0,45.0,29.90,WNW,290,8.0,-999.0,58,-99.99,,,-99.99,,2013-03-31 18:12:00,
2013-03-31 13:22:00,59.0,45.0,29.90,WNW,300,12.0,16.0,58,-99.99,,,-99.99,,2013-03-31 18:22:00,
2013-03-31 13:32:00,59.0,43.0,29.90,WNW,300,9.0,-999.0,54,-99.99,,,-99.99,,2013-03-31 18:32:00,
2013-03-31 13:42:00,59.0,43.0,29.90,WNW,300,9.0,-999.0,54,-99.99,,,-99.99,,2013-03-31 18:42:00,
2013-03-31 13:53:00,61.0,45.0,29.90,West,270,14.0,20.0,55,-99.99,,,-99.99,,2013-03-31 18:53:00,
2013-03-31 14:03:00,61.0,45.0,29.90,West,270,14.0,20.0,55,-99.99,,,-99.99,,2013-03-31 19:03:00,
2013-03-31 14:12:00,61.0,45.0,29.90,West,270,14.0,20.0,55,-99.99,,,-99.99,,2013-03-31 19:12:00,
2013-03-31 14:22:00,61.0,45.0,29.90,West,270,14.0,20.0,55,-99.99,,,-99.99,,2013-03-31 19:22:00,
2013-03-31 14:32:00,61.0,45.0,29.90,West,270,14.0,20.0,55,-99.99,,,-99.99,,2013-03-31 19:32:00,
2013-03-31 14:43:00,61.0,43.0,29.90,West,270,12.0,20.0,51,-99.99,,,-99.99,,2013-03-31 19:43:00,
2013-03-31 14:54:00,61.0,43.0,29.90,WNW,290,14.0,24.0,51,-99.99,,,-99.99,,2013-03-31 19:54:00,
2013-03-31 15:03:00,61.0,43.0,29.90,WNW,290,14.0,24.0,51,-99.99,,,-99.99,,2013-03-31 20:03:00,
2013-03-31 15:12:00,61.0,43.0,29.90,WNW,290,14.0,24.0,51,-99.99,,,-99.99,,2013-03-31 20:12:00,
2013-03-31 15:22:00,61.0,43.0,29.90,WNW,300,14.0,21.0,51,-99.99,,,-99.99,,2013-03-31 20:22:00,
2013-03-31 15:33:00,61.0,43.0,29.89,West,270,18.0,23.0,51,-99.99,,,-99.99,,2013-03-31 20:33:00,
2013-03-31 15:43:00,63.0,43.0,29.89,WNW,300,16.0,23.0,48,-99.99,,,-99.99,,2013-03-31 20:43:00,
2013-03-31 15:53:00,61.0,41.0,29.89,West,280,14.0,27.0,48,-99.99,,,-99.99,,2013-03-31 20:53:00,
2013-03-31 16:02:00,61.0,41.0,29.89,West,280,14.0,27.0,48,-99.99,,,-99.99,,2013-03-31 21:02:00,
2013-03-31 16:12:00,61.0,41.0,29.89,West,280,14.0,27.0,48,-99.99,,,-99.99,,2013-03-31 21:12:00,
2013-03-31 16:22:00,61.0,43.0,29.89,WNW,300,16.0,-999.0,51,-99.99,,,-99.99,,2013-03-31 21:22:00,
2013-03-31 16:33:00,59.0,43.0,29.89,WNW,300,16.0,-999.0,54,-99.99,,,-99.99,,2013-03-31 21:33:00,
2013-03-31 16:43:00,59.0,43.0,29.89,WNW,300,21.0,-999.0,54,-99.99,,,-99.99,,2013-03-31 21:43:00,
2013-03-31 16:54:00,59.0,45.0,29.90,WNW,300,16.0,23.0,58,-99.99,,,-99.99,,2013-03-31 21:54:00,
2013-03-31 17:03:00,59.0,45.0,29.90,WNW,300,16.0,23.0,58,-99.99,,,-99.99,,2013-03-31 22:03:00,
2013-03-31 17:13:00,59.0,45.0,29.90,WNW,300,16.0,23.0,58,-99.99,,,-99.99,,2013-03-31 22:13:00,
2013-03-31 17:23:00,59.0,45.0,29.90,WNW,300,16.0,23.0,58,-99.99,,,-99.99,,2013-03-31 22:23:00,
2013-03-31 17:33:00,61.0,45.0,29.90,WNW,290,21.0,27.0,55,-99.99,,,-99.99,,2013-03-31 22:33:00,
2013-03-31 17:43:00,59.0,45.0,29.90,WNW,300,16.0,27.0,58,-99.99,,,-99.99,,2013-03-31 22:43:00,
2013-03-31 17:53:00,59.0,45.0,29.90,NW,310,20.0,-999.0,58,-99.99,,,-99.99,,2013-03-31 22:53:00,
2013-03-31 18:03:00,59.0,45.0,29.90,NW,310,20.0,-999.0,58,-99.99,,,-99.99,,2013-03-31 23:03:00,
2013-03-31 18:13:00,59.0,45.0,29.90,NW,310,20.0,-999.0,58,-99.99,,,-99.99,,2013-03-31 23:13:00,
2013-03-31 18:22:00,57.0,43.0,29.90,NW,310,20.0,27.0,58,-99.99,,,-99.99,,2013-03-31 23:22:00,
2013-03-31 18:32:00,57.0,41.0,29.91,NW,320,18.0,24.0,54,-99.99,,,-99.99,,2013-03-31 23:32:00,
2013-03-31 18:43:00,57.0,41.0,29.91,NW,310,14.0,24.0,54,-99.99,,,-99.99,,2013-03-31 23:43:00,
2013-03-31 18:53:00,57.0,39.0,29.91,NW,310,15.0,22.0,50,-99.99,,,-99.99,,2013-03-31 23:53:00,
2013-03-31 19:02:00,57.0,39.0,29.91,NW,310,15.0,22.0,50,-99.99,,,-99.99,,2013-04-01 00:02:00,
2013-03-31 19:12:00,57.0,39.0,29.91,NW,310,15.0,22.0,50,-99.99,,,-99.99,,2013-04-01 00:12:00,
2013-03-31 19:22:00,55.0,39.0,29.92,NW,310,10.0,-999.0,54,-99.99,,,-99.99,,2013-04-01 00:22:00,
2013-03-31 19:32:00,54.0,39.0,29.92,NW,310,12.0,-999.0,58,-99.99,,,-99.99,,2013-04-01 00:32:00,
2013-03-31 19:43:00,54.0,39.0,29.92,NW,320,13.0,21.0,58,-99.99,,,-99.99,,2013-04-01 00:43:00,
2013-03-31 19:53:00,52.0,39.0,29.92,NW,320,13.0,18.0,61,-99.99,,,-99.99,,2013-04-01 00:53:00,
2013-03-31 20:02:00,52.0,39.0,29.92,NW,320,13.0,18.0,61,-99.99,,,-99.99,,2013-04-01 01:02:00,
2013-03-31 20:12:00,52.0,39.0,29.92,NW,320,13.0,18.0,61,-99.99,,,-99.99,,2013-04-01 01:12:00,
2013-03-31 20:22:00,50.0,37.0,29.93,NW,310,12.0,-999.0,61,-99.99,,,-99.99,,2013-04-01 01:22:00,
2013-03-31 20:32:00,50.0,37.0,29.94,NW,310,9.0,-999.0,61,-99.99,,,-99.99,,2013-04-01 01:32:00,
2013-03-31 20:43:00,48.0,37.0,29.94,NW,310,9.0,-999.0,66,-99.99,,,-99.99,,2013-04-01 01:43:00,
2013-03-31 20:53:00,50.0,37.0,29.94,WNW,300,9.0,-999.0,61,-99.99,,,-99.99,,2013-04-01 01:53:00,
2013-03-31 21:02:00,50.0,37.0,29.94,WNW,300,9.0,-999.0,61,-99.99,,,-99.99,,2013-04-01 02:02:00,
2013-03-31 21:12:00,50.0,37.0,29.94,WNW,300,9.0,-999.0,61,-99.99,,,-99.99,,2013-04-01 02:12:00,
2013-03-31 21:22:00,48.0,36.0,29.96,WNW,290,7.0,-999.0,61,-99.99,,,-99.99,,2013-04-01 02:22:00,
2013-03-31 21:33:00,48.0,36.0,29.96,WNW,290,7.0,-999.0,61,-99.99,,,-99.99,,2013-04-01 02:33:00,
2013-03-31 21:43:00,48.0,36.0,29.96,WNW,300,7.0,-999.0,61,-99.99,,,-99.99,,2013-04-01 02:43:00,
2013-03-31 21:53:00,46.0,36.0,29.97,NW,310,8.0,-999.0,65,-99.99,,,-99.99,,2013-04-01 02:53:00,
2013-03-31 22:02:00,46.0,36.0,29.97,NW,310,8.0,-999.0,65,-99.99,,,-99.99,,2013-04-01 03:02:00,
2013-03-31 22:12:00,46.0,36.0,29.97,NW,310,8.0,-999.0,65,-99.99,,,-99.99,,2013-04-01 03:12:00,
2013-03-31 22:22:00,45.0,36.0,29.98,NW,320,6.0,-999.0,70,-99.99,,,-99.99,,2013-04-01 03:22:00,
2013-03-31 22:34:00,45.0,34.0,29.98,NNW,340,8.0,-999.0,65,-99.99,,,-99.99,,2013-04-01 03:34:00,
2013-03-31 22:43:00,46.0,34.0,29.98,NNW,330,6.0,-999.0,61,-99.99,,,-99.99,,2013-04-01 03:43:00,
2013-03-31 22:53:00,45.0,34.0,29.98,NNW,340,6.0,-999.0,65,-99.99,,,-99.99,,2013-04-01 03:53:00,
2013-03-31 23:03:00,45.0,34.0,29.98,NNW,340,6.0,-999.0,65,-99.99,,,-99.99,,2013-04-01 04:03:00,
2013-03-31 23:13:00,45.0,34.0,29.98,NNW,340,6.0,-999.0,65,-99.99,,,-99.99,,2013-04-01 04:13:00,
2013-03-31 23:23:00,43.0,34.0,29.99,NNW,330,7.0,-999.0,70,-99.99,,,-99.99,,2013-04-01 04:23:00,
2013-03-31 23:33:00,43.0,34.0,29.99,NNW,340,8.0,-999.0,70,-99.99,,,-99.99,,2013-04-01 04:33:00,
2013-03-31 23:44:00,43.0,32.0,29.99,North,350,9.0,-999.0,65,-99.99,,,-99.99,,2013-04-01 04:44:00,
2013-03-31 23:53:00,41.0,32.0,29.99,North,350,8.0,-999.0,70,-99.99,,,-99.99,,2013-04-01 04:53:00,